When you browse on this site, cookies collect data to enhance your experience and personalize the content and advertising you see.
Visit our Privacy Policy to learn more. By continuing to use the site, you agree to this use of cookies and data.
  • In Austria
  • List of Countries
  • For 7 days
  • Water Temperature
  • Weather Map
  • News
  • Weather Widgets
  • user-avatar
    Login

    Hourly Weather Dedovo

    Today, 2 June, Tuesday

    Time Temperature Precipitation Wind Pressure Humidity
    00:00 +18°C° 0 mm 1 mps 749 mmHg 69%
    01:00 +15°C° 0 mm 0 mps 749 mmHg 71%
    02:00 +15°C° 0 mm 0 mps 749 mmHg 73%
    03:00 +14°C° 0 mm 0 mps 750 mmHg 75%
    04:00 +15°C° 0 mm 1 mps 750 mmHg 75%
    05:00 +18°C° 0 mm 1 mps 750 mmHg 73%
    06:00 +19°C° 0 mm 1 mps 750 mmHg 70%
    07:00 +19°C° 0 mm 2 mps 750 mmHg 67%
    08:00 +20°C° 0 mm 2 mps 750 mmHg 62%
    09:00 +23°C° 0 mm 2 mps 750 mmHg 57%
    10:00 +24°C° 0 mm 2 mps 750 mmHg 52%
    11:00 +25°C° 0 mm 1 mps 750 mmHg 48%
    12:00 +26°C° 0 mm 1 mps 750 mmHg 44%
    13:00 +27°C° 0 mm 1 mps 750 mmHg 40%
    14:00 +27°C° 0 mm 1 mps 750 mmHg 40%
    15:00 +27°C° 0 mm 1 mps 750 mmHg 39%
    16:00 +27°C° 0 mm 2 mps 750 mmHg 39%
    17:00 +26°C° 0 mm 2 mps 750 mmHg 46%
    18:00 +25°C° 0 mm 3 mps 749 mmHg 54%
    19:00 +23°C° 0 mm 4 mps 749 mmHg 61%
    20:00 +21°C° 0 mm 4 mps 749 mmHg 66%
    21:00 +20°C° 0 mm 4 mps 749 mmHg 70%
    22:00 +17°C° 0 mm 5 mps 749 mmHg 75%
    23:00 +17°C° 0 mm 5 mps 749 mmHg 74%

    Tomorrow, 3 June, Wednesday

    Time Temperature Precipitation Wind Pressure Humidity
    00:00 +18°C° 0 mm 4 mps 749 mmHg 74%
    01:00 +17°C° 0 mm 4 mps 749 mmHg 74%
    02:00 +17°C° 0 mm 4 mps 749 mmHg 74%
    03:00 +15°C° 0 mm 4 mps 749 mmHg 75%
    04:00 +16°C° 0 mm 3 mps 749 mmHg 76%
    05:00 +17°C° 0 mm 4 mps 749 mmHg 73%
    06:00 +18°C° 0 mm 4 mps 749 mmHg 71%
    07:00 +19°C° 0 mm 4 mps 749 mmHg 68%
    08:00 +21°C° 0 mm 4 mps 749 mmHg 62%
    09:00 +23°C° 0 mm 5 mps 749 mmHg 57%
    10:00 +26°C° 0 mm 5 mps 749 mmHg 51%
    11:00 +27°C° 0 mm 5 mps 749 mmHg 48%
    12:00 +28°C° 0 mm 5 mps 749 mmHg 45%
    13:00 +29°C° 0 mm 5 mps 748 mmHg 42%
    14:00 +29°C° 0 mm 5 mps 748 mmHg 42%
    15:00 +29°C° 0 mm 5 mps 748 mmHg 42%
    16:00 +29°C° 0 mm 5 mps 748 mmHg 43%
    17:00 +28°C° 0 mm 5 mps 748 mmHg 48%
    18:00 +27°C° 0 mm 4 mps 748 mmHg 53%
    19:00 +25°C° 0 mm 4 mps 748 mmHg 59%
    20:00 +23°C° 0 mm 5 mps 748 mmHg 61%
    21:00 +22°C° 0 mm 6 mps 748 mmHg 64%
    22:00 +21°C° 0 mm 7 mps 748 mmHg 67%
    23:00 +20°C° 0 mm 7 mps 748 mmHg 68%

    Day after tomorrow, 4 June, Thursday

    Time Temperature Precipitation Wind Pressure Humidity
    00:00 +20°C° 0 mm 6 mps 748 mmHg 69%
    01:00 +19°C° 0 mm 6 mps 747 mmHg 70%
    02:00 +19°C° 0 mm 6 mps 747 mmHg 69%
    03:00 +19°C° 0 mm 6 mps 747 mmHg 68%
    04:00 +19°C° 0 mm 6 mps 747 mmHg 67%
    05:00 +18°C° 0 mm 7 mps 747 mmHg 67%
    06:00 +18°C° 0 mm 7 mps 747 mmHg 67%
    07:00 +20°C° 0 mm 7 mps 747 mmHg 67%
    08:00 +21°C° 0 mm 7 mps 747 mmHg 64%
    09:00 +22°C° 0 mm 8 mps 748 mmHg 62%
    10:00 +22°C° 0 mm 8 mps 748 mmHg 59%
    11:00 +23°C° 0 mm 7 mps 748 mmHg 59%
    12:00 +23°C° 0 mm 7 mps 748 mmHg 59%
    13:00 +24°C° 0 mm 7 mps 748 mmHg 58%
    14:00 +23°C° 0 mm 7 mps 748 mmHg 59%
    15:00 +23°C° 0 mm 7 mps 748 mmHg 59%
    16:00 +23°C° 0 mm 7 mps 748 mmHg 60%
    17:00 +22°C° 0 mm 8 mps 748 mmHg 61%
    18:00 +21°C° 0 mm 8 mps 748 mmHg 63%
    19:00 +20°C° 0 mm 8 mps 748 mmHg 64%
    20:00 +20°C° 0 mm 8 mps 748 mmHg 62%
    21:00 +20°C° 0 mm 8 mps 749 mmHg 60%
    22:00 +20°C° 0 mm 8 mps 749 mmHg 57%
    23:00 +20°C° 0 mm 8 mps 749 mmHg 54%

    5 June, Friday

    Time Temperature Precipitation Wind Pressure Humidity
    00:00 +20°C° 0 mm 8 mps 749 mmHg 51%
    01:00 +18°C° 0 mm 8 mps 749 mmHg 48%
    02:00 +18°C° 0 mm 8 mps 749 mmHg 50%
    03:00 +17°C° 0 mm 8 mps 749 mmHg 52%
    04:00 +16°C° 0 mm 7 mps 749 mmHg 54%
    05:00 +16°C° 0 mm 8 mps 750 mmHg 56%
    06:00 +16°C° 0 mm 8 mps 750 mmHg 58%
    07:00 +16°C° 0 mm 8 mps 750 mmHg 61%
    08:00 +17°C° 0 mm 8 mps 750 mmHg 60%
    09:00 +17°C° 0 mm 8 mps 750 mmHg 60%
    10:00 +18°C° 0 mm 7 mps 751 mmHg 59%
    11:00 +18°C° 0.3 mm 7 mps 751 mmHg 60%
    12:00 +20°C° 0.3 mm 7 mps 751 mmHg 61%
    13:00 +20°C° 0.3 mm 6 mps 751 mmHg 62%
    14:00 +20°C° 0.4 mm 6 mps 751 mmHg 63%
    15:00 +20°C° 0.4 mm 6 mps 751 mmHg 64%
    16:00 +19°C° 0.4 mm 6 mps 751 mmHg 65%
    17:00 +19°C° 0.1 mm 6 mps 751 mmHg 65%
    18:00 +17°C° 0.1 mm 6 mps 751 mmHg 66%
    19:00 +17°C° 0.1 mm 6 mps 751 mmHg 67%
    20:00 +16°C° 0 mm 7 mps 751 mmHg 67%
    21:00 +16°C° 0 mm 7 mps 751 mmHg 66%
    22:00 +15°C° 0 mm 7 mps 751 mmHg 65%
    23:00 +15°C° 0 mm 7 mps 751 mmHg 65%

    6 June, Saturday

    Time Temperature Precipitation Wind Pressure Humidity
    00:00 +14°C° 0 mm 6 mps 751 mmHg 64%
    01:00 +14°C° 0 mm 6 mps 751 mmHg 63%
    02:00 +14°C° 0.1 mm 5 mps 751 mmHg 64%
    03:00 +13°C° 0.1 mm 4 mps 751 mmHg 65%
    04:00 +13°C° 0.1 mm 4 mps 751 mmHg 65%
    05:00 +13°C° 0.3 mm 4 mps 751 mmHg 67%
    06:00 +13°C° 0.3 mm 4 mps 751 mmHg 69%
    07:00 +13°C° 0.3 mm 4 mps 751 mmHg 71%
    08:00 +13°C° 0.3 mm 4 mps 751 mmHg 72%
    09:00 +13°C° 0.3 mm 4 mps 752 mmHg 73%
    10:00 +14°C° 0.3 mm 5 mps 752 mmHg 74%
    11:00 +14°C° 0.1 mm 5 mps 752 mmHg 73%
    12:00 +15°C° 0.1 mm 5 mps 752 mmHg 71%
    13:00 +15°C° 0.1 mm 5 mps 753 mmHg 70%
    14:00 +15°C° 0 mm 5 mps 753 mmHg 71%
    15:00 +14°C° 0 mm 5 mps 753 mmHg 73%
    16:00 +14°C° 0 mm 5 mps 753 mmHg 74%
    17:00 +14°C° 0 mm 5 mps 753 mmHg 73%
    18:00 +14°C° 0 mm 5 mps 753 mmHg 72%
    19:00 +14°C° 0 mm 4 mps 753 mmHg 71%
    20:00 +14°C° 0 mm 4 mps 753 mmHg 68%
    21:00 +15°C° 0 mm 4 mps 753 mmHg 65%
    22:00 +15°C° 0 mm 4 mps 753 mmHg 62%
    23:00 +15°C° 0 mm 4 mps 753 mmHg 61%

    7 June, Sunday

    Time Temperature Precipitation Wind Pressure Humidity
    00:00 +15°C° 0 mm 4 mps 753 mmHg 61%
    01:00 +14°C° 0 mm 5 mps 753 mmHg 60%
    02:00 +14°C° 0 mm 4 mps 754 mmHg 62%
    03:00 +13°C° 0 mm 4 mps 754 mmHg 63%
    04:00 +13°C° 0 mm 4 mps 754 mmHg 65%
    05:00 +13°C° 0 mm 4 mps 754 mmHg 65%
    06:00 +14°C° 0 mm 4 mps 754 mmHg 65%
    07:00 +14°C° 0 mm 4 mps 754 mmHg 64%
    08:00 +17°C° 0 mm 4 mps 754 mmHg 59%
    09:00 +19°C° 0 mm 4 mps 755 mmHg 53%
    10:00 +21°C° 0 mm 4 mps 755 mmHg 48%
    11:00 +22°C° 0 mm 5 mps 755 mmHg 44%
    12:00 +23°C° 0 mm 5 mps 755 mmHg 41%
    13:00 +25°C° 0 mm 5 mps 755 mmHg 38%
    14:00 +25°C° 0 mm 5 mps 755 mmHg 38%
    15:00 +26°C° 0 mm 5 mps 755 mmHg 38%
    16:00 +26°C° 0 mm 5 mps 755 mmHg 38%
    17:00 +23°C° 0 mm 5 mps 755 mmHg 44%
    18:00 +21°C° 0 mm 4 mps 755 mmHg 51%
    19:00 +20°C° 0 mm 4 mps 755 mmHg 58%
    20:00 +18°C° 0 mm 4 mps 755 mmHg 62%
    21:00 +17°C° 0 mm 3 mps 755 mmHg 66%
    22:00 +16°C° 0 mm 3 mps 755 mmHg 70%
    23:00 +14°C° 0 mm 3 mps 755 mmHg 71%
    Show more